Location: Peebles
(55.6412°N, 3.1714°W)
Time: 14:43:19
(UTC+00:00)

MOZHAYETS 4 - Pass Details

Date: 10 December 2023
Orbit: 654 x 672 km, 98.3° (Epoch: 03 March)

Event Time Altitude Azimuth Distance (km) Brightness Sun altitude
Exits shadow 17:22:12 - 11° (N) 2,953 10.7 -13.0°
Reaches altitude 10° 17:24:21 10° 4° (N) 2,121 10.0 -13.2°
Maximum altitude 17:28:37 38° 297° (WNW) 1,041 9.1 -13.8°
Drops below altitude 10° 17:32:51 10° 231° (SW) 2,108 11.5 -14.4°
Sets 17:35:11 0° 223° (SW) 3,017 12.3 -14.7°
